Time,TemperatureF,DewpointF,PressureIn,WindDirection,WindDirectionDegrees,WindSpeedMPH,WindSpeedGustMPH,Humidity,HourlyPrecipIn,Conditions,Clouds,dailyrainin,SoftwareType,DateUTC
2013-02-03 00:03:00,31.0,31.0,29.91,South,182,0.0,0.0,100,0.00,,,0.00,,2013-02-03 05:03:00,
2013-02-03 00:32:00,29.0,29.0,29.90,South,178,0.0,0.0,100,0.00,,,0.00,,2013-02-03 05:32:00,
2013-02-03 00:42:00,29.0,29.0,29.90,South,178,0.0,0.0,100,0.00,,,0.00,,2013-02-03 05:42:00,
2013-02-03 00:52:00,29.0,29.0,29.90,South,178,0.0,0.0,100,0.00,,,0.00,,2013-02-03 05:52:00,
2013-02-03 01:02:00,29.0,29.0,29.90,South,178,0.0,0.0,100,0.00,,,0.00,,2013-02-03 06:02:00,
2013-02-03 01:11:00,29.0,29.0,29.90,South,178,0.0,0.0,100,0.00,,,0.00,,2013-02-03 06:11:00,
2013-02-03 01:32:00,29.0,29.0,29.88,South,178,0.0,0.0,100,0.00,,,0.00,,2013-02-03 06:32:00,
2013-02-03 01:42:00,29.0,29.0,29.88,South,178,0.0,0.0,100,0.00,,,0.00,,2013-02-03 06:42:00,
2013-02-03 01:52:00,29.0,29.0,29.88,South,178,0.0,0.0,100,0.00,,,0.00,,2013-02-03 06:52:00,
2013-02-03 02:02:00,29.0,29.0,29.88,South,178,0.0,0.0,100,0.00,,,0.00,,2013-02-03 07:02:00,
2013-02-03 02:11:00,29.0,29.0,29.88,South,178,0.0,0.0,100,0.00,,,0.00,,2013-02-03 07:11:00,
2013-02-03 02:32:00,29.0,29.0,29.86,SW,216,1.0,2.0,100,0.00,,,0.00,,2013-02-03 07:32:00,
2013-02-03 02:42:00,29.0,29.0,29.86,SW,216,1.0,2.0,100,0.00,,,0.00,,2013-02-03 07:42:00,
2013-02-03 02:52:00,29.0,29.0,29.86,SW,216,1.0,2.0,100,0.00,,,0.00,,2013-02-03 07:52:00,
2013-02-03 03:02:00,29.0,29.0,29.86,SW,216,1.0,2.0,100,0.00,,,0.00,,2013-02-03 08:02:00,
2013-02-03 03:11:00,29.0,29.0,29.86,SW,216,1.0,2.0,100,0.00,,,0.00,,2013-02-03 08:11:00,
2013-02-03 03:32:00,30.0,30.0,29.86,NNW,328,0.0,1.0,100,0.00,,,0.00,,2013-02-03 08:32:00,
2013-02-03 03:42:00,30.0,30.0,29.86,NNW,328,0.0,1.0,100,0.00,,,0.00,,2013-02-03 08:42:00,
2013-02-03 03:52:00,30.0,30.0,29.86,NNW,328,0.0,1.0,100,0.00,,,0.00,,2013-02-03 08:52:00,
2013-02-03 04:03:00,30.0,30.0,29.86,NNW,328,0.0,1.0,100,0.00,,,0.00,,2013-02-03 09:03:00,
2013-02-03 04:11:00,30.0,30.0,29.86,NNW,328,0.0,1.0,100,0.00,,,0.00,,2013-02-03 09:11:00,
2013-02-03 04:32:00,30.0,27.0,29.85,NW,313,0.0,2.0,87,0.00,,,0.00,,2013-02-03 09:32:00,
2013-02-03 04:42:00,30.0,27.0,29.85,NW,313,0.0,2.0,87,0.00,,,0.00,,2013-02-03 09:42:00,
2013-02-03 04:52:00,30.0,27.0,29.85,NW,313,0.0,2.0,87,0.00,,,0.00,,2013-02-03 09:52:00,
2013-02-03 05:01:00,30.0,27.0,29.85,NW,313,0.0,2.0,87,0.00,,,0.00,,2013-02-03 10:01:00,
2013-02-03 05:11:00,30.0,27.0,29.85,NW,313,0.0,2.0,87,0.00,,,0.00,,2013-02-03 10:11:00,
2013-02-03 05:32:00,31.0,24.0,29.85,NE,34,0.0,12.0,75,0.00,,,0.00,,2013-02-03 10:32:00,
2013-02-03 05:42:00,31.0,24.0,29.85,NE,34,0.0,12.0,75,0.00,,,0.00,,2013-02-03 10:42:00,
2013-02-03 05:53:00,31.0,24.0,29.85,NE,34,0.0,12.0,75,0.00,,,0.00,,2013-02-03 10:53:00,
2013-02-03 06:02:00,31.0,24.0,29.85,NE,34,0.0,12.0,75,0.00,,,0.00,,2013-02-03 11:02:00,
2013-02-03 06:11:00,31.0,24.0,29.85,NE,34,0.0,12.0,75,0.00,,,0.00,,2013-02-03 11:11:00,
2013-02-03 06:12:00,30.0,25.0,29.87,ESE,121,0.0,0.0,83,0.00,,,0.00,,2013-02-03 11:12:00,
2013-02-03 06:32:00,30.0,25.0,29.87,ESE,121,0.0,0.0,83,0.00,,,0.00,,2013-02-03 11:32:00,
2013-02-03 06:42:00,30.0,25.0,29.87,ESE,121,0.0,0.0,83,0.00,,,0.00,,2013-02-03 11:42:00,
2013-02-03 06:52:00,30.0,25.0,29.87,ESE,121,0.0,0.0,83,0.00,,,0.00,,2013-02-03 11:52:00,
2013-02-03 07:02:00,30.0,25.0,29.87,ESE,121,0.0,0.0,83,0.00,,,0.00,,2013-02-03 12:02:00,
2013-02-03 07:33:00,29.0,26.0,29.86,ESE,112,0.0,2.0,87,0.00,,,0.00,,2013-02-03 12:33:00,
2013-02-03 07:42:00,29.0,26.0,29.86,ESE,112,0.0,2.0,87,0.00,,,0.00,,2013-02-03 12:42:00,
2013-02-03 07:53:00,29.0,26.0,29.86,ESE,112,0.0,2.0,87,0.00,,,0.00,,2013-02-03 12:53:00,
2013-02-03 08:03:00,29.0,26.0,29.86,ESE,112,0.0,2.0,87,0.00,,,0.00,,2013-02-03 13:03:00,
2013-02-03 08:11:00,29.0,26.0,29.86,ESE,112,0.0,2.0,87,0.00,,,0.00,,2013-02-03 13:11:00,
2013-02-03 09:32:00,31.0,27.0,29.87,ESE,103,0.0,0.0,85,0.01,,,0.01,,2013-02-03 14:32:00,
2013-02-03 09:42:00,31.0,27.0,29.87,ESE,103,0.0,0.0,85,0.01,,,0.01,,2013-02-03 14:42:00,
2013-02-03 09:52:00,31.0,27.0,29.87,ESE,103,0.0,0.0,85,0.01,,,0.01,,2013-02-03 14:52:00,
2013-02-03 10:03:00,31.0,27.0,29.87,ESE,103,0.0,0.0,85,0.01,,,0.01,,2013-02-03 15:03:00,
2013-02-03 10:11:00,31.0,27.0,29.87,ESE,103,0.0,0.0,85,0.01,,,0.01,,2013-02-03 15:11:00,
2013-02-03 10:33:00,34.0,30.0,29.85,ESE,104,0.0,6.0,86,0.00,,,0.01,,2013-02-03 15:33:00,
2013-02-03 10:42:00,34.0,30.0,29.85,ESE,104,0.0,6.0,86,0.00,,,0.01,,2013-02-03 15:42:00,
2013-02-03 10:52:00,34.0,30.0,29.85,ESE,104,0.0,6.0,86,0.00,,,0.01,,2013-02-03 15:52:00,
2013-02-03 11:03:00,34.0,30.0,29.85,ESE,104,0.0,6.0,86,0.00,,,0.01,,2013-02-03 16:03:00,
2013-02-03 11:11:00,34.0,30.0,29.85,ESE,104,0.0,6.0,86,0.00,,,0.01,,2013-02-03 16:11:00,
2013-02-03 11:33:00,39.0,33.0,29.85,East,86,0.0,2.0,78,0.00,,,0.01,,2013-02-03 16:33:00,
2013-02-03 11:42:00,39.0,33.0,29.85,East,86,0.0,2.0,78,0.00,,,0.01,,2013-02-03 16:42:00,
2013-02-03 11:52:00,39.0,33.0,29.85,East,86,0.0,2.0,78,0.00,,,0.01,,2013-02-03 16:52:00,
2013-02-03 12:03:00,39.0,33.0,29.85,East,86,0.0,2.0,78,0.00,,,0.01,,2013-02-03 17:03:00,
2013-02-03 12:11:00,39.0,33.0,29.85,East,86,0.0,2.0,78,0.00,,,0.01,,2013-02-03 17:11:00,
2013-02-03 13:33:00,51.0,27.0,29.80,NE,42,2.0,8.0,39,0.00,,,0.01,,2013-02-03 18:33:00,
2013-02-03 15:33:00,45.0,25.0,29.80,WNW,299,1.0,5.0,45,0.00,,,0.01,,2013-02-03 20:33:00,
2013-02-03 15:42:00,45.0,25.0,29.80,WNW,299,1.0,5.0,45,0.00,,,0.01,,2013-02-03 20:42:00,
2013-02-03 15:52:00,45.0,25.0,29.80,WNW,299,1.0,5.0,45,0.00,,,0.01,,2013-02-03 20:52:00,
2013-02-03 16:03:00,45.0,25.0,29.80,WNW,299,1.0,5.0,45,0.00,,,0.01,,2013-02-03 21:03:00,
2013-02-03 16:11:00,45.0,25.0,29.80,WNW,299,1.0,5.0,45,0.00,,,0.01,,2013-02-03 21:11:00,
2013-02-03 17:12:00,38.0,25.0,29.87,West,268,1.0,10.0,58,0.00,,,0.01,,2013-02-03 22:12:00,
2013-02-03 17:32:00,38.0,25.0,29.87,West,268,1.0,10.0,58,0.00,,,0.01,,2013-02-03 22:32:00,
2013-02-03 17:42:00,38.0,25.0,29.87,West,268,1.0,10.0,58,0.00,,,0.01,,2013-02-03 22:42:00,
2013-02-03 17:52:00,38.0,25.0,29.87,West,268,1.0,10.0,58,0.00,,,0.01,,2013-02-03 22:52:00,
2013-02-03 18:01:00,38.0,25.0,29.87,West,268,1.0,10.0,58,0.00,,,0.01,,2013-02-03 23:01:00,
2013-02-03 18:33:00,35.0,24.0,29.86,NW,309,0.0,2.0,63,0.00,,,0.01,,2013-02-03 23:33:00,
2013-02-03 18:42:00,35.0,24.0,29.86,NW,309,0.0,2.0,63,0.00,,,0.01,,2013-02-03 23:42:00,
2013-02-03 18:52:00,35.0,24.0,29.86,NW,309,0.0,2.0,63,0.00,,,0.01,,2013-02-03 23:52:00,
2013-02-03 19:02:00,35.0,24.0,29.86,NW,309,0.0,2.0,63,0.00,,,0.01,,2013-02-04 00:02:00,
2013-02-03 19:11:00,35.0,24.0,29.86,NW,309,0.0,2.0,63,0.00,,,0.01,,2013-02-04 00:11:00,
2013-02-03 19:32:00,33.0,24.0,29.88,WNW,291,1.0,3.0,68,0.00,,,0.01,,2013-02-04 00:32:00,
2013-02-03 19:42:00,33.0,24.0,29.88,WNW,291,1.0,3.0,68,0.00,,,0.01,,2013-02-04 00:42:00,
2013-02-03 19:52:00,33.0,24.0,29.88,WNW,291,1.0,3.0,68,0.00,,,0.01,,2013-02-04 00:52:00,
2013-02-03 20:01:00,33.0,24.0,29.88,WNW,291,1.0,3.0,68,0.00,,,0.01,,2013-02-04 01:01:00,
2013-02-03 20:11:00,33.0,24.0,29.88,WNW,291,1.0,3.0,68,0.00,,,0.01,,2013-02-04 01:11:00,
2013-02-03 20:32:00,32.0,24.0,29.89,WNW,291,1.0,2.0,72,0.00,,,0.01,,2013-02-04 01:32:00,
2013-02-03 20:42:00,32.0,24.0,29.89,WNW,291,1.0,2.0,72,0.00,,,0.01,,2013-02-04 01:42:00,
2013-02-03 20:52:00,32.0,24.0,29.89,WNW,291,1.0,2.0,72,0.00,,,0.01,,2013-02-04 01:52:00,
2013-02-03 21:02:00,32.0,24.0,29.89,WNW,291,1.0,2.0,72,0.00,,,0.01,,2013-02-04 02:02:00,
2013-02-03 21:11:00,32.0,24.0,29.89,WNW,291,1.0,2.0,72,0.00,,,0.01,,2013-02-04 02:11:00,
2013-02-03 21:32:00,31.0,23.0,29.90,NW,316,0.0,6.0,71,0.00,,,0.01,,2013-02-04 02:32:00,
2013-02-03 21:42:00,31.0,23.0,29.90,NW,316,0.0,6.0,71,0.00,,,0.01,,2013-02-04 02:42:00,
2013-02-03 21:52:00,31.0,23.0,29.90,NW,316,0.0,6.0,71,0.00,,,0.01,,2013-02-04 02:52:00,
2013-02-03 22:02:00,31.0,23.0,29.90,NW,316,0.0,6.0,71,0.00,,,0.01,,2013-02-04 03:02:00,
2013-02-03 22:11:00,31.0,23.0,29.90,NW,316,0.0,6.0,71,0.00,,,0.01,,2013-02-04 03:11:00,
2013-02-03 22:32:00,29.0,22.0,29.89,WNW,296,1.0,3.0,75,0.00,,,0.01,,2013-02-04 03:32:00,
2013-02-03 22:42:00,29.0,22.0,29.89,WNW,296,1.0,3.0,75,0.00,,,0.01,,2013-02-04 03:42:00,
2013-02-03 22:52:00,29.0,22.0,29.89,WNW,296,1.0,3.0,75,0.00,,,0.01,,2013-02-04 03:52:00,
2013-02-03 23:01:00,29.0,22.0,29.89,WNW,296,1.0,3.0,75,0.00,,,0.01,,2013-02-04 04:01:00,
2013-02-03 23:11:00,29.0,22.0,29.89,WNW,296,1.0,3.0,75,0.00,,,0.01,,2013-02-04 04:11:00,
2013-02-03 23:32:00,28.0,22.0,29.92,NW,304,1.0,4.0,78,0.00,,,0.01,,2013-02-04 04:32:00,
2013-02-03 23:42:00,28.0,22.0,29.92,NW,304,1.0,4.0,78,0.00,,,0.01,,2013-02-04 04:42:00,
2013-02-03 23:52:00,28.0,22.0,29.92,NW,304,1.0,4.0,78,0.00,,,0.01,,2013-02-04 04:52:00,